User: anonymous   Login
Location: Niverville
(49.6028°N, 97.0419°W)
Time: 01:59:12
(UTC-05:00)
Language:

BREEZE-M DEB (TANK) - Orbit

View from above orbital plane
View from above orbital plane
View from above satellite
View from above satellite

Ground track
Ground track

The orbit data is extracted from the following two-line orbital elements,

1 33374U 08044B   15184.86140204  .00001493  00000-0  66848-3 0  9992
2 33374 049.4676 064.2064 5427177 016.6819 020.5363 04.85763884119254
Epoch (UTC): 03 July 2015 20:40:25
Eccentricity: 0.5427177
inclination: 49.4676°
perigee height: 356 km
apogee height: 16341 km
right ascension of ascending node: 64.2064°
argument of perigee: 16.6819°
revolutions per day: 4.85763884
mean anomaly at epoch: 20.5363°
orbit number at epoch: 11925

The dashed part of the orbit path shows where the satellite is in the earth's shadow,  

DLR